Location: Oshawa
(43.9000°N, 78.8670°W)
Time: 15:27:47
(UTC-05:00)

Amateur Radio Satellites - All Passes

Search period start: 10 December 2016 14:57
Search period end: 11 December 2016 14:57
Location: Oshawa, 43.9000°N, 78.8670°W

Satellite Date Start Highest point End Downlink Frequencies (MHz)
Time Altitude Azimuth
AUBIESAT-1 10 Dec 15:03:41 15:08:08 51° 104° (ESE) 15:12:19 437.475
AIST 2 10 Dec 15:06:07 15:10:06 38° 49° (NE) 15:14:03 435.215
ITAMSAT 1 10 Dec 15:12:14 15:17:05 39° 262° (W) 15:21:58 435.822/435.867
Gurwin Techsat 1B 10 Dec 15:14:15 15:14:36 10° 274° (W) 15:14:57 435.225
M-CUBED/EXP-1 PRIME 10 Dec 15:20:10 15:24:51 88° 284° (WNW) 15:29:16 437.505
Cosmos 2491 10 Dec 15:30:54 15:34:45 13° 53° (NE) 15:38:35 435.465 / 435.565
SWISSCUBE 10 Dec 15:34:47 15:39:20 46° 290° (WNW) 15:43:52 437.505
BEESAT 10 Dec 15:38:16 15:42:50 48° 290° (WNW) 15:47:23 436.000
STARS 10 Dec 15:48:03 15:49:09 11° 89° (E) 15:50:15 437.465
NOAA 15 10 Dec 15:52:53 15:54:33 11° 55° (NE) 15:56:14 137.62
KKS-1 10 Dec 15:53:51 15:57:42 28° 96° (E) 16:01:31 437.445
MOZHAYETS 4 10 Dec 15:59:41 16:04:15 79° 103° (ESE) 16:08:49
BRITE-PL 10 Dec 15:59:50 16:03:55 36° 68° (ENE) 16:08:19 437.365/2234.400
O/OREOS (USA 219) 10 Dec 16:05:02 16:09:18 39° 300° (WNW) 16:13:34 437.305
HORYU 2 10 Dec 16:06:59 16:11:02 34° 68° (ENE) 16:15:06 437.375
ITUPSAT 1 10 Dec 16:09:52 16:13:46 26° 295° (WNW) 16:17:39 437.325
Cubesat XI-IV 10 Dec 16:12:26 16:15:35 16° 58° (ENE) 16:18:45 437.490
CUBESAT XI-V 10 Dec 16:16:45 16:20:03 19° 92° (E) 16:23:21 437.345
AO-7 10 Dec 16:26:07 16:32:50 27° 266° (W) 16:39:37 29.400- 29.500
ISS 10 Dec 16:30:13 16:33:12 31° 341° (NNW) 16:36:12 145.825
DOVE 4 10 Dec 16:33:42 16:36:59 18° 61° (ENE) 16:40:23 437.250
NOAA 18 10 Dec 16:36:04 16:39:43 18° 58° (ENE) 16:43:22 137.9125
AUBIESAT-1 10 Dec 16:38:50 16:42:07 20° 303° (WNW) 16:45:17 437.475
AIST 2 10 Dec 16:44:56 16:48:24 24° 246° (WSW) 16:51:50 435.215
GOMX 1 10 Dec 16:47:19 16:51:51 47° 71° (ENE) 16:56:46 467.674
RS-15 10 Dec 16:49:14 17:01:07 57° 247° (WSW) 17:12:35 29.354- 29.394
M-CUBED/EXP-1 PRIME 10 Dec 16:56:32 16:58:31 13° 307° (NW) 17:00:30 437.505
CINEMA 3 10 Dec 17:16:34 17:18:40 13° 59° (ENE) 17:20:46 145.822/145.860
HO-68 10 Dec 17:20:28 17:25:19 20° 53° (NE) 17:30:11 435.675
STARS 10 Dec 17:21:36 17:26:02 75° 286° (WNW) 17:30:24 437.465
CUTE-I 10 Dec 17:22:04 17:27:20 61° 72° (ENE) 17:32:37 437.470
Cosmos 2491 10 Dec 17:25:04 17:33:44 62° 77° (ENE) 17:42:19 435.465 / 435.565
NOAA 15 10 Dec 17:28:12 17:33:25 75° 74° (ENE) 17:38:41 137.62
LilacSat-2 10 Dec 17:29:28 17:33:17 70° 76° (ENE) 17:37:05 437.200
KKS-1 10 Dec 17:30:18 17:34:14 30° 293° (WNW) 17:38:08 437.445
MOZHAYETS 4 10 Dec 17:38:51 17:40:46 13° 300° (WNW) 17:42:41
BRITE-PL 10 Dec 17:38:59 17:42:33 23° 268° (W) 17:46:21 437.365/2234.400
HORYU 2 10 Dec 17:43:59 17:47:38 24° 265° (W) 17:51:18 437.375
Cosmos 2504 10 Dec 17:46:26 17:51:07 16° 74° (ENE) 17:55:53 435.465 / 435.565
Cubesat XI-IV 10 Dec 17:49:36 17:54:59 81° 256° (WSW) 18:00:24 437.490
CANX-2 10 Dec 17:51:29 17:53:50 15° 63° (ENE) 17:56:11 2200.000
YUBILEINY 10 Dec 17:52:31 18:00:13 37° 85° (E) 18:07:57 435.215
CUBESAT XI-V 10 Dec 17:53:11 17:57:41 48° 288° (WNW) 18:02:11 437.345
SEEDS 10 Dec 18:06:42 18:08:29 13° 62° (ENE) 18:10:17 437.485
ISS 10 Dec 18:07:49 18:10:24 21° 2° (N) 18:13:00 145.825
DOVE 4 10 Dec 18:09:11 18:14:04 66° 259° (W) 18:19:16 437.250
NOAA 18 10 Dec 18:14:13 18:19:45 75° 256° (WSW) 18:25:21 137.9125
SO-50 10 Dec 18:15:01 18:18:47 23° 113° (ESE) 18:22:30 436.795
CUSAT 1 10 Dec 18:21:42 18:22:13 10° 70° (ENE) 18:22:44 437.405
PCSat 10 Dec 18:26:28 18:31:06 28° 45° (NE) 18:35:43 145.827
GOMX 1 10 Dec 18:26:43 18:30:16 21° 270° (W) 18:34:00 467.674
AIST 1 10 Dec 18:35:01 18:38:26 23° 88° (E) 18:41:55
CUBEBUG 2 10 Dec 18:35:16 18:38:29 18° 64° (ENE) 18:41:40 437.445
STRAND 1 10 Dec 18:42:21 18:46:13 21° 93° (E) 18:50:02 437.568
CINEMA 3 10 Dec 18:50:00 18:55:00 87° 75° (ENE) 19:00:03 145.822/145.860
CUTE-I 10 Dec 19:04:04 19:07:47 19° 269° (W) 19:11:30 437.470
HO-68 10 Dec 19:04:55 19:12:05 88° 74° (ENE) 19:19:20 435.675
AAUSAT CUBESAT 2 10 Dec 19:05:05 19:08:31 26° 68° (ENE) 19:11:58 437.432
CUTE 1.7 + AOD 2 10 Dec 19:05:52 19:10:03 77° 76° (ENE) 19:14:17 437.475
UWE-3 10 Dec 19:06:13 19:09:52 24° 66° (ENE) 19:13:28 435.000/436.395/437.385
RS-15 10 Dec 19:07:39 19:10:32 11° 269° (W) 19:13:24 29.354- 29.394
NOAA 15 10 Dec 19:11:00 19:13:46 14° 271° (W) 19:16:34 137.62
Cosmos 2491 10 Dec 19:22:45 19:29:58 30° 278° (W) 19:37:09 435.465 / 435.565
CANX-2 10 Dec 19:25:07 19:29:14 55° 260° (W) 19:33:23 2200.000
Cosmos 2504 10 Dec 19:34:25 19:42:54 77° 94° (E) 19:51:47 435.465 / 435.565
Cubesat XI-IV 10 Dec 19:35:07 19:35:52 10° 274° (W) 19:36:37 437.490
ZACube-1 10 Dec 19:35:15 19:39:05 28° 68° (ENE) 19:42:51 437.345
SEEDS 10 Dec 19:39:31 19:43:39 66° 260° (W) 19:47:48 437.485
COMPASS 1 10 Dec 19:39:52 19:43:59 84° 76° (ENE) 19:48:08 437.405
FUNcube-1 10 Dec 19:39:52 19:43:42 29° 68° (ENE) 19:47:29 145.935
ISS 10 Dec 19:44:25 19:47:32 37° 22° (NNE) 19:50:39 145.825
YUBILEINY 10 Dec 19:48:17 19:56:42 52° 285° (WNW) 20:05:14 435.215
SO-50 10 Dec 19:54:23 19:58:59 48° 310° (NW) 20:03:32 436.795
DANDE 10 Dec 19:56:47 19:59:02 18° 76° (ENE) 20:01:38 436.750
CUSAT 1 10 Dec 20:00:08 20:04:11 79° 261° (W) 20:09:33 437.405
Oscar 11 10 Dec 20:03:20 20:07:27 46° 72° (ENE) 20:11:35 145.826/435.025
PCSat 10 Dec 20:09:31 20:14:47 54° 245° (WSW) 20:20:03 145.827
CUBEBUG 2 10 Dec 20:10:03 20:14:41 54° 260° (W) 20:19:17 437.445
AIST 1 10 Dec 20:12:00 20:15:53 31° 286° (WNW) 20:19:47
HUMSAT D 10 Dec 20:18:40 20:20:50 14° 63° (ENE) 20:23:00 437.325/437.525
STRAND 1 10 Dec 20:20:44 20:25:39 49° 290° (WNW) 20:30:32 437.568
CINEMA 3 10 Dec 20:31:02 20:32:46 12° 273° (W) 20:34:29 145.822/145.860
AAUSAT CUBESAT 2 10 Dec 20:40:26 20:43:55 27° 265° (W) 20:47:25 437.432
UWE-3 10 Dec 20:41:47 20:46:07 39° 263° (W) 20:50:23 435.000/436.395/437.385
DELFI C3 10 Dec 20:52:15 20:56:04 55° 74° (ENE) 20:59:57 145.870
HO-68 10 Dec 20:56:12 21:00:42 17° 271° (W) 21:05:14 435.675
ZACube-1 10 Dec 21:11:17 21:15:16 30° 264° (W) 21:19:13 437.345
FUNcube-1 10 Dec 21:15:56 21:19:52 29° 264° (W) 21:23:45 145.935
ISS 10 Dec 21:20:56 21:24:02 37° 220° (SW) 21:27:07 145.825
ESTCUBE 1 10 Dec 21:22:29 21:23:57 11° 59° (ENE) 21:25:25 437.505/2401.250
Cosmos 2504 10 Dec 21:30:18 21:37:15 26° 297° (WNW) 21:44:27 435.465 / 435.565
PRISM 10 Dec 21:35:48 21:39:59 83° 102° (ESE) 21:44:10 437.425
SO-50 10 Dec 21:39:00 21:40:35 11° 331° (NNW) 21:42:08 436.795
DANDE 10 Dec 21:39:12 21:41:37 20° 264° (W) 21:44:28 436.750
Oscar 11 10 Dec 21:41:01 21:43:49 17° 268° (W) 21:46:38 145.826/435.025
HUMSAT D 10 Dec 21:51:52 21:55:59 58° 259° (W) 22:00:06 437.325/437.525
YUBILEINY 10 Dec 21:54:16 21:56:04 11° 311° (NW) 21:57:52 435.215
UNISAT 6 10 Dec 22:09:33 22:13:45 43° 99° (E) 22:17:49 437.425
Cosmos 2499 10 Dec 22:23:25 22:27:42 15° 73° (ENE) 22:32:00 435.465 / 435.565
PHONESAT 2.4 10 Dec 22:24:52 22:26:43 17° 159° (SSE) 22:28:33 2401.200-2431.200
DELFI C3 10 Dec 22:29:46 22:31:15 12° 270° (W) 22:32:43 145.870
JAS-2 10 Dec 22:32:09 22:35:36 17° 92° (E) 22:39:11 435.910
GONETS M04 10 Dec 22:35:00 22:39:27 15° 74° (ENE) 22:43:56
TIGRISAT 10 Dec 22:37:44 22:42:07 83° 103° (ESE) 22:46:23 435.000
AISAT 10 Dec 22:39:58 22:43:50 30° 67° (ENE) 22:47:44 437.250
ANTELSAT 10 Dec 22:40:38 22:45:01 87° 285° (WNW) 22:49:18 437.575/2403.000
CUBEBUG 1 10 Dec 22:51:12 22:55:27 53° 72° (ENE) 22:59:46 437.445
ESTCUBE 1 10 Dec 22:55:35 23:00:04 85° 256° (WSW) 23:04:35 437.505/2401.250
UKube-1 10 Dec 23:08:41 23:12:06 23° 65° (ENE) 23:15:33 .
SPROUT 10 Dec 23:09:19 23:13:16 37° 70° (ENE) 23:17:15 437.525
DX 1 10 Dec 23:11:43 23:15:36 33° 68° (ENE) 23:19:32 434.975-435.025
PRISM 10 Dec 23:13:46 23:14:38 11° 301° (WNW) 23:15:29 437.425
NANOSAT C BR1 10 Dec 23:13:55 23:17:14 22° 94° (E) 23:20:31 145.865
VELOX 1 10 Dec 23:15:52 23:20:15 67° 74° (ENE) 23:24:41 145.980
QB50P2 10 Dec 23:24:44 23:28:36 33° 97° (E) 23:32:24 145.880/145.840
POLYITAN 1 10 Dec 23:25:09 23:28:56 31° 96° (E) 23:32:41 437.675
50 SAT 10 Dec 23:28:55 23:32:24 77° 76° (ENE) 23:35:55 437.505
DUCHIFAT 1 10 Dec 23:32:55 23:36:43 32° 97° (E) 23:40:29 145.980
QB50P1 10 Dec 23:36:13 23:40:15 41° 98° (E) 23:44:14 145.935-145.965
UNISAT 6 10 Dec 23:47:04 23:50:08 19° 296° (WNW) 23:53:09 437.425
POPSAT HIP 1 10 Dec 23:58:11 00:02:26 72° 102° (ESE) 00:06:37 437.405
AO-85 10 Dec 23:58:35 00:02:09 20° 113° (ESE) 00:05:33 145.980
PHONESAT 2.4 10 Dec 23:59:00 00:01:29 36° 176° (S) 00:03:58 2401.200-2431.200
BUGSAT 1 11 Dec 00:07:47 00:11:28 29° 96° (E) 00:15:04 437.445
Cosmos 2499 11 Dec 00:10:31 00:19:07 71° 93° (E) 00:27:59 435.465 / 435.565
TISAT 1 11 Dec 00:12:05 00:15:49 30° 68° (ENE) 00:19:32 437.305
JAS-2 11 Dec 00:15:58 00:21:07 61° 288° (WNW) 00:26:35 435.910
AISAT 11 Dec 00:16:28 00:20:16 28° 264° (W) 00:24:06 437.250
TIGRISAT 11 Dec 00:16:57 00:18:06 11° 301° (WNW) 00:19:16 435.000
AUBIESAT-1 11 Dec 00:19:37 00:20:36 11° 51° (NE) 00:21:36 437.475
GONETS M04 11 Dec 00:26:03 00:34:43 77° 95° (E) 00:43:25
CUBEBUG 1 11 Dec 00:29:29 00:32:04 15° 269° (W) 00:34:40 437.445
O/OREOS (USA 219) 11 Dec 00:34:06 00:38:31 55° 63° (ENE) 00:42:54 437.305
M-CUBED/EXP-1 PRIME 11 Dec 00:34:21 00:37:16 18° 56° (NE) 00:40:16 437.505
UKube-1 11 Dec 00:44:01 00:47:57 34° 262° (W) 00:51:56 .
SPROUT 11 Dec 00:46:01 00:49:18 21° 267° (W) 00:52:37 437.525
DX 1 11 Dec 00:48:16 00:51:49 24° 265° (W) 00:55:25 434.975-435.025
NANOSAT C BR1 11 Dec 00:49:13 00:53:01 33° 291° (WNW) 00:56:48 145.865
VELOX 1 11 Dec 00:55:18 00:57:10 12° 270° (W) 00:59:03 145.980
QB50P2 11 Dec 01:00:51 01:04:13 23° 294° (WNW) 01:07:33 145.880/145.840
POLYITAN 1 11 Dec 01:01:11 01:04:36 24° 293° (WNW) 01:07:59 437.675
Oscar 19 11 Dec 01:03:50 01:08:23 30° 95° (E) 01:12:55 437.125/150
SWISSCUBE 11 Dec 01:05:24 01:09:26 28° 66° (ENE) 01:13:27 437.505
DUCHIFAT 1 11 Dec 01:08:53 01:12:14 23° 294° (WNW) 01:15:35 145.980
BEESAT 11 Dec 01:08:53 01:12:52 27° 66° (ENE) 01:16:53 436.000
QB50P1 11 Dec 01:12:42 01:15:44 19° 295° (WNW) 01:18:44 145.935-145.965
MOZHAYETS 4 11 Dec 01:29:40 01:30:42 11° 58° (ENE) 01:31:43
PHONESAT 2.4 11 Dec 01:34:00 01:36:22 29° 192° (SSW) 01:38:43 2401.200-2431.200
POPSAT HIP 1 11 Dec 01:35:57 01:37:38 12° 299° (WNW) 01:39:17 437.405
AO-85 11 Dec 01:37:32 01:42:18 55° 308° (NW) 01:46:43 145.980
ITUPSAT 1 11 Dec 01:39:31 01:44:08 51° 71° (ENE) 01:48:46 437.325
BUGSAT 1 11 Dec 01:43:17 01:46:42 25° 293° (WNW) 01:50:05 437.445
Gurwin Techsat 1B 11 Dec 01:43:32 01:48:26 36° 97° (E) 01:53:17 435.225
TISAT 1 11 Dec 01:47:53 01:51:25 25° 265° (W) 01:54:59 437.305
AUBIESAT-1 11 Dec 01:49:50 01:54:08 76° 70° (ENE) 01:58:42 437.475
Cosmos 2499 11 Dec 02:05:42 02:13:02 29° 295° (WNW) 02:20:31 435.465 / 435.565
M-CUBED/EXP-1 PRIME 11 Dec 02:07:01 02:11:13 59° 254° (WSW) 02:15:44 437.505
O/OREOS (USA 219) 11 Dec 02:14:49 02:17:26 15° 261° (W) 02:20:02 437.305
GONETS M04 11 Dec 02:25:41 02:32:31 25° 297° (WNW) 02:39:23
AO-7 11 Dec 02:32:33 02:38:22 20° 90° (E) 02:44:09 29.400- 29.500
SWISSCUBE 11 Dec 02:42:46 02:47:06 34° 263° (W) 02:51:27 437.505
Oscar 19 11 Dec 02:43:00 02:47:44 37° 293° (WNW) 02:52:28 437.125/150
SO-50 11 Dec 02:44:16 02:48:22 32° 45° (NE) 02:52:24 436.795
STARS 11 Dec 02:45:39 02:47:45 13° 60° (ENE) 02:49:51 437.465
BEESAT 11 Dec 02:46:09 02:50:30 35° 262° (W) 02:54:54 436.000
BEESAT 3 11 Dec 02:46:41 02:48:28 13° 110° (ESE) 02:50:17 437.485
KKS-1 11 Dec 02:53:02 02:56:57 31° 68° (ENE) 03:00:55 437.445
MOZHAYETS 4 11 Dec 03:02:31 03:07:06 87° 78° (ENE) 03:11:43
ITUPSAT 1 11 Dec 03:18:57 03:22:15 18° 268° (W) 03:25:33 437.325
CUBESAT XI-V 11 Dec 03:21:28 03:24:57 22° 65° (ENE) 03:28:28 437.345
AO-85 11 Dec 03:22:04 03:23:37 11° 328° (NNW) 03:25:09 145.980
ITAMSAT 1 11 Dec 03:23:07 03:28:17 67° 102° (ESE) 03:33:25 435.822/435.867
Gurwin Techsat 1B 11 Dec 03:23:37 03:28:17 32° 294° (WNW) 03:32:55 435.225
BEESAT 2 11 Dec 03:27:06 03:29:34 16° 111° (ESE) 03:32:04 435.950
AUBIESAT-1 11 Dec 03:27:36 03:29:06 12° 267° (W) 03:30:37 437.475
YUBILEINY 11 Dec 04:00:45 04:06:52 20° 59° (ENE) 04:12:57 435.215
BRITE-PL 11 Dec 04:03:40 04:06:34 14° 88° (E) 04:09:28 437.365/2234.400
STARS 11 Dec 04:19:05 04:23:30 73° 257° (WSW) 04:27:58 437.465
BEESAT 3 11 Dec 04:21:44 04:25:36 61° 307° (NW) 04:29:31 437.485
AO-7 11 Dec 04:23:42 04:32:08 89° 294° (WNW) 04:40:32 29.400- 29.500
SO-50 11 Dec 04:24:45 04:28:49 34° 244° (WSW) 04:32:50 436.795
KKS-1 11 Dec 04:29:41 04:33:30 27° 264° (W) 04:37:22 437.445
Cosmos 2491 11 Dec 04:37:40 04:41:04 13° 72° (ENE) 04:44:27 435.465 / 435.565
GOMX 1 11 Dec 04:48:41 04:51:57 16° 88° (E) 04:55:11 467.674
CUBESAT XI-V 11 Dec 04:57:43 05:02:03 42° 262° (W) 05:06:27 437.345
BEESAT 2 11 Dec 05:03:08 05:06:58 50° 308° (NW) 05:10:53 435.950
ITAMSAT 1 11 Dec 05:03:48 05:07:14 18° 300° (WNW) 05:10:38 435.822/435.867
RS-15 11 Dec 05:04:39 05:13:09 24° 99° (E) 05:21:51 29.354- 29.394
Cosmos 2504 11 Dec 05:26:16 05:33:55 32° 67° (ENE) 05:41:08 435.465 / 435.565
HORYU 2 11 Dec 05:32:22 05:36:44 55° 100° (E) 05:41:03 437.375
CUTE-I 11 Dec 05:38:28 05:42:28 21° 92° (E) 05:46:26 437.470
BRITE-PL 11 Dec 05:40:02 05:45:37 86° 284° (WNW) 05:51:19 437.365/2234.400
NOAA 15 11 Dec 05:42:26 05:46:45 25° 94° (E) 05:51:04 137.62
YUBILEINY 11 Dec 05:56:11 06:05:05 86° 82° (E) 06:13:57 435.215
STRAND 1 11 Dec 05:59:16 06:03:54 36° 67° (ENE) 06:08:33 437.568
BEESAT 3 11 Dec 06:03:12 06:04:03 11° 327° (NNW) 06:04:53 437.485
Cubesat XI-IV 11 Dec 06:05:40 06:10:36 36° 97° (E) 06:15:28 437.490
DOVE 4 11 Dec 06:06:58 06:11:45 34° 95° (E) 06:16:21 437.250
AIST 1 11 Dec 06:16:48 06:21:14 71° 81° (E) 06:25:36
AO-7 11 Dec 06:17:41 06:23:52 24° 310° (NW) 06:30:02 29.400- 29.500
GOMX 1 11 Dec 06:25:03 06:30:35 76° 284° (WNW) 06:35:59 467.674
Cosmos 2491 11 Dec 06:27:28 06:36:07 68° 93° (E) 06:44:46 435.465 / 435.565
HO-68 11 Dec 06:33:13 06:37:08 15° 87° (E) 06:41:00 435.675
NOAA 18 11 Dec 06:35:01 06:40:15 42° 98° (E) 06:45:25 137.9125
LilacSat-2 11 Dec 06:35:28 06:39:16 88° 104° (ESE) 06:43:02 437.200
AIST 2 11 Dec 06:42:42 06:46:38 47° 119° (ESE) 06:50:39 435.215
CINEMA 3 11 Dec 06:44:41 06:48:02 19° 90° (E) 06:51:17 145.822/145.860
CUTE 1.7 + AOD 2 11 Dec 06:51:15 06:52:54 12° 89° (E) 06:54:33 437.475
CANX-2 11 Dec 07:09:06 07:12:26 22° 94° (E) 07:15:45 2200.000
HORYU 2 11 Dec 07:10:05 07:12:51 16° 298° (WNW) 07:15:36 437.375
RS-15 11 Dec 07:11:56 07:23:46 86° 122° (ESE) 07:36:09 29.354- 29.394
CUTE-I 11 Dec 07:17:39 07:22:49 53° 290° (WNW) 07:27:58 437.470
Cosmos 2504 11 Dec 07:19:19 07:27:52 61° 269° (W) 07:35:51 435.465 / 435.565
BRITE-PL 11 Dec 07:20:23 07:23:19 15° 301° (WNW) 07:26:18 437.365/2234.400
NOAA 15 11 Dec 07:21:42 07:26:42 45° 291° (WNW) 07:31:43 137.62
SEEDS 11 Dec 07:22:41 07:25:37 18° 92° (E) 07:28:32 437.485
COMPASS 1 11 Dec 07:23:03 07:24:43 12° 89° (E) 07:26:22 437.405
STRAND 1 11 Dec 07:38:38 07:43:06 30° 264° (W) 07:47:36 437.568
DOVE 4 11 Dec 07:44:42 07:49:21 32° 293° (WNW) 07:53:50 437.250
Cubesat XI-IV 11 Dec 07:45:54 07:50:35 32° 294° (WNW) 07:55:13 437.490
YUBILEINY 11 Dec 07:54:41 08:00:42 21° 283° (WNW) 08:06:44 435.215
AIST 1 11 Dec 07:57:07 07:58:09 11° 278° (W) 07:59:11
CUBEBUG 2 11 Dec 08:00:03 08:03:46 27° 95° (E) 08:07:22 437.445
TIGRISAT 11 Dec 08:04:42 08:05:42 11° 59° (ENE) 08:06:42 435.000
GOMX 1 11 Dec 08:05:29 08:07:41 12° 303° (WNW) 08:09:54 467.674
ANTELSAT 11 Dec 08:06:55 08:08:39 12° 60° (ENE) 08:10:24 437.575/2403.000
NOAA 18 11 Dec 08:16:00 08:20:44 30° 296° (WNW) 08:25:27 137.9125
HO-68 11 Dec 08:18:37 08:25:52 83° 106° (ESE) 08:33:05 435.675
AAUSAT CUBESAT 2 11 Dec 08:20:23 08:24:19 40° 98° (E) 08:28:13 437.432
CINEMA 3 11 Dec 08:20:55 08:25:27 46° 289° (WNW) 08:29:46 145.822/145.860
AIST 2 11 Dec 08:22:05 08:25:21 22° 318° (NW) 08:28:40 435.215
CUTE 1.7 + AOD 2 11 Dec 08:24:57 08:29:09 63° 286° (WNW) 08:33:19 437.475
PRISM 11 Dec 08:26:06 08:30:08 69° 75° (ENE) 08:34:14 437.425
Cosmos 2491 11 Dec 08:26:22 08:33:41 29° 294° (WNW) 08:41:01 435.465 / 435.565
AO-85 11 Dec 08:28:02 08:31:18 23° 43° (NE) 08:34:28 145.980
UWE-3 11 Dec 08:30:00 08:33:57 36° 97° (E) 08:37:48 435.000/436.395/437.385
CANX-2 11 Dec 08:44:32 08:48:20 34° 290° (WNW) 08:52:09 2200.000
JAS-2 11 Dec 08:50:29 08:50:58 10° 55° (NE) 08:51:28 435.910
COMPASS 1 11 Dec 08:56:32 09:00:39 61° 286° (WNW) 09:04:46 437.405
SEEDS 11 Dec 08:57:32 09:01:28 40° 289° (WNW) 09:05:24 437.485
ZACube-1 11 Dec 08:57:44 09:01:46 44° 99° (E) 09:05:43 437.345
FUNcube-1 11 Dec 09:01:59 09:06:00 45° 99° (E) 09:09:58 145.935
CUSAT 1 11 Dec 09:06:10 09:08:57 71° 282° (WNW) 09:11:32 437.405
DANDE 11 Dec 09:07:34 09:10:34 22° 97° (E) 09:13:06 436.750
UNISAT 6 11 Dec 09:09:06 09:13:34 47° 72° (ENE) 09:17:59 437.425
PCSat 11 Dec 09:11:33 09:14:42 16° 104° (ESE) 09:17:50 145.827
Cosmos 2504 11 Dec 09:17:08 09:19:12 11° 290° (WNW) 09:21:15 435.465 / 435.565
Oscar 11 11 Dec 09:24:48 09:29:07 80° 101° (E) 09:33:26 145.826/435.025
RS-15 11 Dec 09:26:49 09:37:52 39° 329° (NNW) 09:49:16 29.354- 29.394
HUMSAT D 11 Dec 09:34:27 09:37:23 19° 93° (E) 09:40:18 437.325/437.525
CUBEBUG 2 11 Dec 09:36:39 09:40:20 28° 293° (WNW) 09:43:56 437.445
TIGRISAT 11 Dec 09:36:59 09:41:39 84° 75° (ENE) 09:46:16 435.000
ANTELSAT 11 Dec 09:40:01 09:44:42 86° 258° (WSW) 09:49:19 437.575/2403.000
AAUSAT CUBESAT 2 11 Dec 09:56:33 09:59:31 19° 294° (WNW) 10:02:27 437.432
Cosmos 2499 11 Dec 10:01:22 10:08:29 28° 65° (ENE) 10:15:09 435.465 / 435.565
DELFI C3 11 Dec 10:02:34 10:06:35 78° 104° (ESE) 10:10:34 145.870
PRISM 11 Dec 10:05:23 10:05:54 10° 271° (W) 10:06:26 437.425
UWE-3 11 Dec 10:06:59 10:10:11 21° 295° (WNW) 10:13:19 435.000/436.395/437.385
NANOSAT C BR1 11 Dec 10:07:26 10:10:38 21° 65° (ENE) 10:13:50 145.865
HO-68 11 Dec 10:07:32 10:12:47 22° 305° (NW) 10:18:02 435.675
AO-85 11 Dec 10:08:09 10:11:49 37° 243° (WSW) 10:15:25 145.980
QB50P2 11 Dec 10:18:30 10:22:14 30° 69° (ENE) 10:26:01 145.880/145.840
POLYITAN 1 11 Dec 10:18:55 10:22:37 29° 68° (ENE) 10:26:20 437.675
DUCHIFAT 1 11 Dec 10:25:54 10:29:36 29° 68° (ENE) 10:33:18 145.980
JAS-2 11 Dec 10:29:08 10:35:12 66° 73° (ENE) 10:40:39 435.910
QB50P1 11 Dec 10:29:41 10:33:38 37° 70° (ENE) 10:37:35 145.935-145.965
GONETS M04 11 Dec 10:34:43 10:42:51 41° 71° (ENE) 10:50:58
ZACube-1 11 Dec 10:34:56 10:37:42 17° 296° (WNW) 10:40:27 437.345
FUNcube-1 11 Dec 10:39:12 10:41:54 17° 296° (WNW) 10:44:34 145.935
UNISAT 6 11 Dec 10:47:10 10:50:29 19° 268° (W) 10:53:47 437.425
ESTCUBE 1 11 Dec 10:47:30 10:50:39 18° 92° (E) 10:53:48 437.505/2401.250
DANDE 11 Dec 10:50:41 10:53:09 17° 285° (WNW) 10:55:19 436.750
POPSAT HIP 1 11 Dec 10:51:29 10:55:43 63° 74° (ENE) 10:59:58 437.405
PCSat 11 Dec 10:52:00 10:57:24 77° 301° (WNW) 11:02:52 145.827
BUGSAT 1 11 Dec 10:58:39 11:02:12 26° 67° (ENE) 11:05:44 437.445
BEESAT 3 11 Dec 11:00:40 11:03:16 16° 39° (NE) 11:05:52 437.485
Oscar 11 11 Dec 11:03:17 11:04:37 11° 300° (WNW) 11:05:58 145.826/435.025
VELOX 1 11 Dec 11:06:48 11:08:14 11° 89° (E) 11:09:41 145.980
HUMSAT D 11 Dec 11:09:22 11:13:07 36° 289° (WNW) 11:16:52 437.325/437.525
TIGRISAT 11 Dec 11:18:03 11:18:53 10° 272° (W) 11:19:44 435.000
Gurwin Techsat 1B 11 Dec 11:31:39 11:32:09 10° 54° (NE) 11:32:38 435.225
DELFI C3 11 Dec 11:40:19 11:40:46 10° 299° (WNW) 11:41:14 145.870
NANOSAT C BR1 11 Dec 11:42:08 11:46:06 38° 262° (W) 11:50:07 145.865
BEESAT 2 11 Dec 11:42:26 11:45:25 19° 41° (NE) 11:48:24 435.950
RS-15 11 Dec 11:44:59 11:55:04 28° 4° (N) 12:05:11 29.354- 29.394
Cosmos 2499 11 Dec 11:53:58 12:02:22 67° 267° (W) 12:10:06 435.465 / 435.565
QB50P2 11 Dec 11:54:29 11:58:02 25° 265° (W) 12:01:37 145.880/145.840
POLYITAN 1 11 Dec 11:54:44 11:58:22 27° 265° (W) 12:02:02 437.675
DUCHIFAT 1 11 Dec 12:01:40 12:05:14 26° 265° (W) 12:08:51 145.980
AISAT 11 Dec 12:04:18 12:08:39 49° 100° (E) 12:12:58 437.250
QB50P1 11 Dec 12:06:16 12:09:30 21° 267° (W) 12:12:46 145.935-145.965
CUBEBUG 1 11 Dec 12:14:16 12:18:45 90° 127° (SE) 12:23:10 437.445
JAS-2 11 Dec 12:16:33 12:20:39 19° 268° (W) 12:24:30 435.910
Oscar 19 11 Dec 12:21:51 12:26:47 50° 70° (ENE) 12:31:46 437.125/150
ESTCUBE 1 11 Dec 12:23:22 12:27:42 46° 289° (WNW) 12:32:01 437.505/2401.250
50 SAT 11 Dec 12:26:36 12:30:11 73° 102° (ESE) 12:33:45 437.505
SPROUT 11 Dec 12:29:05 12:33:20 58° 101° (E) 12:37:33 437.525
UKube-1 11 Dec 12:29:20 12:33:16 33° 97° (E) 12:37:11 .
POPSAT HIP 1 11 Dec 12:30:03 12:31:53 12° 270° (W) 12:33:45 437.405
GONETS M04 11 Dec 12:31:35 12:39:45 47° 272° (W) 12:47:57
BUGSAT 1 11 Dec 12:33:43 12:37:27 30° 264° (W) 12:41:12 437.445
DX 1 11 Dec 12:33:57 12:38:15 50° 100° (E) 12:42:31 434.975-435.025
BEESAT 3 11 Dec 12:37:21 12:41:20 69° 238° (WSW) 12:45:16 437.485
PCSat 11 Dec 12:38:17 12:41:43 17° 323° (NW) 12:45:10 145.827
VELOX 1 11 Dec 12:40:43 12:45:12 74° 286° (WNW) 12:49:39 145.980
ITAMSAT 1 11 Dec 13:05:28 13:08:45 17° 59° (ENE) 13:12:03 435.822/435.867
Gurwin Techsat 1B 11 Dec 13:05:49 13:11:04 66° 72° (ENE) 13:16:22 435.225
BEESAT 2 11 Dec 13:19:34 13:23:31 54° 240° (WSW) 13:27:26 435.950
AIST 2 11 Dec 13:26:57 13:27:10 10° 30° (NNE) 13:27:24 435.215
TISAT 1 11 Dec 13:29:29 13:33:31 42° 99° (E) 13:37:30 437.305
AO-7 11 Dec 13:32:48 13:40:02 35° 56° (NE) 13:47:17 29.400- 29.500
ITUPSAT 1 11 Dec 13:40:51 13:42:23 11° 89° (E) 13:43:56 437.325
AISAT 11 Dec 13:41:40 13:44:45 19° 297° (WNW) 13:47:50 437.250
Cosmos 2499 11 Dec 13:50:45 13:53:35 12° 289° (WNW) 13:56:21 435.465 / 435.565
CUBEBUG 1 11 Dec 13:53:15 13:54:18 11° 301° (WNW) 13:55:21 437.445
RS-15 11 Dec 14:00:03 14:11:51 46° 37° (NE) 14:23:21 29.354- 29.394
ISS 11 Dec 14:01:46 14:04:40 30° 138° (SE) 14:07:36 145.825
Oscar 19 11 Dec 14:02:30 14:06:22 21° 267° (W) 14:10:17 437.125/150
UKube-1 11 Dec 14:05:38 14:09:10 25° 294° (WNW) 14:12:40 .
SPROUT 11 Dec 14:06:24 14:08:47 15° 298° (WNW) 14:11:10 437.525
DX 1 11 Dec 14:11:07 14:14:04 18° 297° (WNW) 14:16:59 434.975-435.025
SWISSCUBE 11 Dec 14:40:52 14:45:32 52° 100° (E) 14:50:09 437.505
ITAMSAT 1 11 Dec 14:42:26 14:47:38 71° 257° (WSW) 14:52:52 435.822/435.867
BEESAT 11 Dec 14:44:15 14:48:53 51° 100° (E) 14:53:30 436.000
O/OREOS (USA 219) 11 Dec 14:47:34 14:51:57 49° 108° (ESE) 14:56:21 437.305
Gurwin Techsat 1B 11 Dec 14:48:05 14:51:29 17° 270° (W) 14:54:54 435.225
